31-03-2022, 00:00:02,      0,    0.7,    0.2,   0.00,   0.00, 1005.2,   83.6, -999.0
31-03-2022, 00:00:12,    358,    0.1,    0.0,   0.00,   0.00, 1005.1,   83.6, -999.0
31-03-2022, 00:00:22,      0,    0.4,    0.1,   0.00,   0.00, 1005.2,   83.8, -999.0
31-03-2022, 00:00:32,     61,    1.6,    0.1,   0.00,   0.00, 1005.2,   83.9, -999.0
31-03-2022, 00:00:42,     60,    1.0,    0.2,   0.00,   0.00, 1005.2,   84.1, -999.0
31-03-2022, 00:00:52,     60,    0.2,    0.1,   0.00,   0.00, 1005.1,   83.7, -999.0
31-03-2022, 00:01:02,     60,    0.0,    0.1,   0.00,   0.00, 1005.1,   83.5, -999.0
31-03-2022, 00:01:12,     15,    1.0,    0.2,   0.00,   0.00, 1005.2,   83.7, -999.0
31-03-2022, 00:01:21,     61,    1.0,    0.2,   0.00,   0.00, 1005.2,   83.7, -999.0
31-03-2022, 00:01:32,     48,    0.4,    0.1,   0.00,   0.00, 1005.1,   83.3, -999.0
31-03-2022, 00:01:42,     43,    1.0,    0.2,   0.00,   0.00, 1005.1,   83.7, -999.0
31-03-2022, 00:01:51,     69,    0.2,    0.1,   0.00,   0.00, 1005.1,   83.4, -999.0
31-03-2022, 00:02:02,     63,    0.1,    0.2,   0.00,   0.00, 1005.1,   83.5, -999.0
31-03-2022, 00:02:12,     63,    0.0,    0.1,   0.00,   0.00, 1005.1,   83.4, -999.0
31-03-2022, 00:02:21,     63,    0.0,    0.1,   0.00,   0.00, 1005.1,   83.5, -999.0
31-03-2022, 00:02:31,    358,    0.3,    0.2,   0.00,   0.00, 1005.1,   83.6, -999.0
31-03-2022, 00:02:41,      2,    1.1,    0.2,   0.00,   0.00, 1005.2,   83.8, -999.0
31-03-2022, 00:02:51,     32,    1.2,    0.2,   0.00,   0.00, 1005.2,   83.7, -999.0
31-03-2022, 00:03:01,     34,    0.0,    0.2,   0.00,   0.00, 1005.1,   83.4, -999.0
31-03-2022, 00:03:11,      3,    0.7,    0.1,   0.00,   0.00, 1005.1,   83.6, -999.0
31-03-2022, 00:03:21,    357,    0.9,    0.2,   0.00,   0.00, 1005.2,   83.8, -999.0
31-03-2022, 00:03:31,    357,    0.0,    0.1,   0.00,   0.00, 1005.1,   83.3, -999.0
31-03-2022, 00:03:41,      0,    0.0,    0.0,   0.00,   0.00, 1005.1,   83.3, -999.0
31-03-2022, 00:03:51,      0,    0.0,    0.0,   0.00,   0.00, 1005.1,   83.3, -999.0
31-03-2022, 00:04:01,      0,    0.5,    0.2,   0.00,   0.00, 1005.2,   83.7, -999.0
31-03-2022, 00:04:11,      0,    0.0,    0.1,   0.00,   0.00, 1005.1,   83.3, -999.0
31-03-2022, 00:04:21,      0,    0.0,    0.1,   0.00,   0.00, 1005.1,   83.3, -999.0
31-03-2022, 00:04:31,      0,    1.5,    0.1,   0.00,   0.00, 1005.2,   83.6, -999.0
31-03-2022, 00:04:41,     23,    2.6,    0.2,   0.00,   0.00, 1005.2,   83.7, -999.0
31-03-2022, 00:04:51,     22,    0.2,    0.2,   0.00,   0.00, 1005.1,   83.5, -999.0
31-03-2022, 00:05:00,     22,    0.0,    0.1,   0.00,   0.00, 1005.1,   83.3, -999.0
31-03-2022, 00:05:11,     22,    0.0,    0.1,   0.00,   0.00, 1005.1,   83.4, -999.0
31-03-2022, 00:05:21,     22,    0.0,    0.1,   0.00,   0.00, 1005.1,   83.4, -999.0
31-03-2022, 00:05:30,     22,    0.0,    0.1,   0.00,   0.00, 1005.1,   83.5, -999.0
31-03-2022, 00:05:40,     21,    0.0,    0.1,   0.00,   0.00, 1005.1,   83.4, -999.0
31-03-2022, 00:05:51,     21,    0.0,    0.1,   0.00,   0.00, 1005.1,   83.4, -999.0
31-03-2022, 00:06:00,     22,    0.0,    0.1,   0.00,   0.00, 1005.1,   83.5, -999.0
31-03-2022, 00:06:10,     18,    0.0,    0.1,   0.00,   0.00, 1005.1,   83.6, -999.0
31-03-2022, 00:06:20,     19,    0.0,    0.1,   0.00,   0.00, 1005.1,   83.6, -999.0
31-03-2022, 00:06:30,     19,    0.0,    0.2,   0.00,   0.00, 1005.0,   83.5, -999.0
31-03-2022, 00:06:40,     18,    0.0,    0.2,   0.00,   0.00, 1005.1,   83.4, -999.0
31-03-2022, 00:06:50,     18,    0.0,    0.1,   0.00,   0.00, 1005.0,   83.5, -999.0
31-03-2022, 00:07:00,     24,    0.0,    0.1,   0.00,   0.00, 1005.1,   83.7, -999.0
31-03-2022, 00:07:10,     25,    1.3,    0.2,   0.00,   0.00, 1005.2,   83.9, -999.0
31-03-2022, 00:07:20,    342,    1.0,    0.2,   0.00,   0.00, 1005.2,   83.7, -999.0
31-03-2022, 00:07:30,     47,    2.1,    0.2,   0.00,   0.00, 1005.2,   83.8, -999.0
31-03-2022, 00:07:40,      0,    0.3,    0.2,   0.00,   0.00, 1005.1,   83.5, -999.0
31-03-2022, 00:07:50,     23,    0.5,    0.2,   0.00,   0.00, 1005.1,   83.7, -999.0
31-03-2022, 00:08:00,    347,    0.0,    0.1,   0.00,   0.00, 1005.1,   83.5, -999.0
31-03-2022, 00:08:09,     24,    0.0,    0.1,   0.00,   0.00, 1005.0,   83.4, -999.0
31-03-2022, 00:08:20,     35,    1.0,    0.0,   0.00,   0.00, 1005.1,   83.7, -999.0
31-03-2022, 00:08:30,      2,    2.3,    0.2,   0.00,   0.00, 1005.2,   83.8, -999.0
31-03-2022, 00:08:39,     29,    0.7,    0.2,   0.00,   0.00, 1005.2,   83.7, -999.0
31-03-2022, 00:08:50,     28,    0.0,    0.1,   0.00,   0.00, 1005.0,   83.3, -999.0
31-03-2022, 00:09:00,     23,    0.1,    0.0,   0.00,   0.00, 1005.1,   83.7, -999.0
31-03-2022, 00:09:09,     23,    0.1,    0.2,   0.00,   0.00, 1005.1,   83.6, -999.0
31-03-2022, 00:09:19,     23,    0.0,    0.0,   0.00,   0.00, 1005.1,   83.4, -999.0
31-03-2022, 00:09:30,     23,    0.0,    0.0,   0.00,   0.00, 1005.1,   83.4, -999.0
31-03-2022, 00:09:39,     23,    0.0,    0.1,   0.00,   0.00, 1005.1,   83.5, -999.0
31-03-2022, 00:09:49,     23,    0.0,    0.2,   0.00,   0.00, 1005.1,   83.5, -999.0
31-03-2022, 00:09:59,     22,    0.0,    0.1,   0.00,   0.00, 1005.1,   83.4, -999.0
31-03-2022, 00:10:09,     22,    0.0,    0.1,   0.00,   0.00, 1005.1,   83.6, -999.0
31-03-2022, 00:10:19,     22,    0.0,    0.0,   0.00,   0.00, 1005.1,   83.5, -999.0
31-03-2022, 00:10:29,    343,    0.0,    0.2,   0.00,   0.00, 1005.1,   83.6, -999.0
31-03-2022, 00:10:39,    343,    0.0,    0.2,   0.00,   0.00, 1005.1,   83.5, -999.0
31-03-2022, 00:10:49,    345,    0.0,    0.2,   0.00,   0.00, 1005.1,   83.5, -999.0
31-03-2022, 00:10:59,    349,    0.0,    0.0,   0.00,   0.00, 1005.1,   83.5, -999.0
31-03-2022, 00:11:09,    349,    0.0,    0.1,   0.00,   0.00, 1005.1,   83.5, -999.0
31-03-2022, 00:11:19,    350,    0.0,    0.2,   0.00,   0.00, 1005.1,   83.5, -999.0
31-03-2022, 00:11:29,    352,    0.0,    0.0,   0.00,   0.00, 1005.1,   83.5, -999.0
31-03-2022, 00:11:39,    352,    0.0,    0.1,   0.00,   0.00, 1005.1,   83.5, -999.0
31-03-2022, 00:11:48,    357,    0.0,    0.1,   0.00,   0.00, 1005.1,   83.5, -999.0
31-03-2022, 00:11:59,    358,    0.0,    0.2,   0.00,   0.00, 1005.1,   83.6, -999.0
31-03-2022, 00:12:09,    358,    0.0,    0.1,   0.00,   0.00, 1005.1,   83.5, -999.0
31-03-2022, 00:12:18,    358,    0.0,    0.1,   0.00,   0.00, 1005.1,   83.6, -999.0
31-03-2022, 00:12:28,    358,    0.0,    0.1,   0.00,   0.00, 1005.1,   83.6, -999.0
31-03-2022, 00:12:39,    358,    0.0,    0.1,   0.00,   0.00, 1005.1,   83.5, -999.0
31-03-2022, 00:12:48,    343,    0.0,    0.1,   0.00,   0.00, 1005.1,   83.4, -999.0
31-03-2022, 00:12:58,     44,    0.4,    0.1,   0.00,   0.00, 1005.2,   83.6, -999.0
31-03-2022, 00:13:08,      9,    0.0,    0.1,   0.00,   0.00, 1005.1,   83.6, -999.0
31-03-2022, 00:13:18,      9,    0.0,    0.1,   0.00,   0.00, 1005.1,   83.5, -999.0
31-03-2022, 00:13:28,     19,    0.4,    0.2,   0.00,   0.00, 1005.2,   83.6, -999.0
31-03-2022, 00:13:38,      0,    0.6,    0.1,   0.00,   0.00, 1005.1,   83.7, -999.0
31-03-2022, 00:13:48,      0,    0.0,    0.1,   0.00,   0.00, 1005.1,   83.5, -999.0
31-03-2022, 00:13:58,      0,    0.2,    0.1,   0.00,   0.00, 1005.1,   83.6, -999.0
31-03-2022, 00:14:08,      0,    0.2,    0.1,   0.00,   0.00, 1005.1,   83.7, -999.0
31-03-2022, 00:14:18,    322,    0.1,    0.0,   0.00,   0.00, 1005.1,   83.7, -999.0
31-03-2022, 00:14:28,     31,    0.1,    0.2,   0.00,   0.00, 1005.1,   83.7, -999.0
31-03-2022, 00:14:38,     31,    0.0,    0.1,   0.00,   0.00, 1005.1,   83.5, -999.0
31-03-2022, 00:14:48,     30,    0.0,    0.1,   0.00,   0.00, 1005.1,   83.5, -999.0
31-03-2022, 00:14:57,     31,    0.0,    0.1,   0.00,   0.00, 1005.0,   83.5, -999.0
31-03-2022, 00:15:08,     31,    0.0,    0.1,   0.00,   0.00, 1005.1,   83.5, -999.0
31-03-2022, 00:15:18,     29,    0.0,    0.1,   0.00,   0.00, 1005.1,   83.7, -999.0
31-03-2022, 00:15:27,     28,    0.0,    0.1,   0.00,   0.00, 1005.1,   83.6, -999.0
31-03-2022, 00:15:38,     29,    0.0,    0.1,   0.00,   0.00, 1005.1,   83.6, -999.0
31-03-2022, 00:15:48,     29,    0.0,    0.1,   0.00,   0.00, 1005.1,   83.7, -999.0
31-03-2022, 00:15:57,     29,    0.0,    0.1,   0.00,   0.00, 1005.0,   83.6, -999.0
31-03-2022, 00:16:07,     29,    0.0,    0.1,   0.00,   0.00, 1005.1,   83.7, -999.0
31-03-2022, 00:16:18,     28,    0.0,    0.1,   0.00,   0.00, 1005.1,   83.5, -999.0
31-03-2022, 00:16:27,      0,    0.0,    0.1,   0.00,   0.00, 1005.1,   83.6, -999.0
31-03-2022, 00:16:37,      0,    0.0,    0.1,   0.00,   0.00, 1005.1,   83.5, -999.0
31-03-2022, 00:16:47,      0,    0.0,    0.1,   0.00,   0.00, 1005.1,   83.4, -999.0
31-03-2022, 00:16:57,      0,    0.0,    0.1,   0.00,   0.00, 1005.1,   83.5, -999.0
31-03-2022, 00:17:07,      0,    0.0,    0.0,   0.00,   0.00, 1005.1,   83.7, -999.0
31-03-2022, 00:17:17,      4,    0.0,    0.0,   0.00,   0.00, 1005.1,   83.7, -999.0
31-03-2022, 00:17:27,      0,    0.0,    0.1,   0.00,   0.00, 1005.1,   83.6, -999.0
31-03-2022, 00:17:37,      0,    0.0,    0.1,   0.00,   0.00, 1005.1,   83.7, -999.0
31-03-2022, 00:17:47,      0,    0.0,    0.0,   0.00,   0.01, 1005.1,   83.7, -999.0
31-03-2022, 00:17:57,      0,    0.0,    0.0,   0.00,   0.00, 1005.1,   83.6, -999.0
31-03-2022, 00:18:07,      0,    2.2,    0.1,   0.00,   0.00, 1005.2,   83.9, -999.0
31-03-2022, 00:18:17,      0,    0.1,    0.0,   0.00,   0.00, 1005.1,   83.6, -999.0
31-03-2022, 00:18:27,      0,    0.0,    0.0,   0.00,   0.00, 1005.1,   83.4, -999.0
31-03-2022, 00:18:36,      0,    0.0,   -0.1,   0.00,   0.00, 1005.1,   83.6, -999.0
31-03-2022, 00:18:47,      7,    0.1,    0.1,   0.00,   0.00, 1005.2,   83.8, -999.0
31-03-2022, 00:18:57,     83,    0.0,    0.0,   0.00,   0.00, 1005.1,   83.6, -999.0
31-03-2022, 00:19:06,    269,    0.0,    0.0,   0.00,   0.00, 1005.1,   83.7, -999.0
31-03-2022, 00:19:16,    303,    0.0,    0.0,   0.00,   0.00, 1005.1,   83.8, -999.0
31-03-2022, 00:19:27,    344,    0.0,    0.0,   0.00,   0.00, 1005.1,   83.8, -999.0
31-03-2022, 00:19:36,      0,    0.3,   -0.1,   0.00,   0.00, 1005.1,   83.7, -999.0
31-03-2022, 00:19:46,    312,    1.2,    0.1,   0.00,   0.00, 1005.2,   84.1, -999.0
31-03-2022, 00:19:57,      0,    0.0,    0.0,   0.00,   0.00, 1005.1,   83.8, -999.0
31-03-2022, 00:20:06,      0,    0.0,    0.0,   0.00,   0.00, 1005.1,   83.8, -999.0
31-03-2022, 00:20:16,      0,    0.0,    0.0,   0.00,   0.00, 1005.1,   83.8, -999.0
31-03-2022, 00:20:26,     41,    0.0,    0.0,   0.00,   0.00, 1005.0,   83.8, -999.0
31-03-2022, 00:20:36,    358,    0.1,    0.0,   0.00,   0.00, 1005.1,   84.0, -999.0
31-03-2022, 00:20:46,    358,    0.0,    0.0,   0.00,   0.00, 1005.1,   83.9, -999.0
31-03-2022, 00:20:56,    358,    0.0,    0.1,   0.00,   0.00, 1005.1,   83.9, -999.0
31-03-2022, 00:21:06,    358,    0.0,    0.1,   0.00,   0.00, 1005.1,   84.0, -999.0
31-03-2022, 00:21:16,    358,    0.0,    0.0,   0.00,   0.00, 1005.1,   83.9, -999.0
31-03-2022, 00:21:26,      0,    0.0,    0.1,   0.00,   0.00, 1005.1,   83.9, -999.0
31-03-2022, 00:21:36,    312,    0.5,    0.1,   0.00,   0.00, 1005.1,   83.9, -999.0
31-03-2022, 00:21:46,    348,    1.4,    0.3,   0.00,   0.00, 1005.2,   84.1, -999.0
31-03-2022, 00:21:56,    350,    0.0,    0.0,   0.00,   0.00, 1005.1,   83.8, -999.0
31-03-2022, 00:22:06,    353,    0.1,    0.0,   0.00,   0.00, 1005.1,   83.9, -999.0
31-03-2022, 00:22:15,     29,    0.5,    0.1,   0.00,   0.00, 1005.2,   84.1, -999.0
31-03-2022, 00:22:26,      0,    0.1,    0.0,   0.00,   0.00, 1005.1,   83.9, -999.0
31-03-2022, 00:22:36,    333,    0.1,    0.0,   0.00,   0.00, 1005.1,   83.9, -999.0
31-03-2022, 00:22:45,      0,    0.2,    0.0,   0.00,   0.00, 1005.1,   83.9, -999.0
31-03-2022, 00:22:55,      0,    0.4,    0.1,   0.00,   0.00, 1005.2,   84.2, -999.0
31-03-2022, 00:23:06,    340,    0.0,    0.0,   0.00,   0.00, 1005.1,   83.9, -999.0
31-03-2022, 00:23:15,    343,    0.0,    0.0,   0.00,   0.00, 1005.1,   83.8, -999.0
31-03-2022, 00:23:25,    345,    0.0,    0.0,   0.00,   0.00, 1005.1,   83.8, -999.0
31-03-2022, 00:23:35,    344,    0.0,    0.0,   0.00,   0.00, 1005.1,   83.9, -999.0
31-03-2022, 00:23:45,    345,    0.0,    0.0,   0.00,   0.00, 1005.1,   83.9, -999.0
31-03-2022, 00:23:55,    345,    0.0,   -0.1,   0.00,   0.00, 1005.1,   83.9, -999.0
31-03-2022, 00:24:05,    347,    0.0,    0.0,   0.00,   0.00, 1005.1,   83.7, -999.0
31-03-2022, 00:24:15,      0,    0.0,    0.0,   0.00,   0.00, 1005.1,   83.8, -999.0
31-03-2022, 00:24:25,      0,    0.2,    0.0,   0.00,   0.00, 1005.2,   84.0, -999.0
31-03-2022, 00:24:35,      0,    0.0,    0.0,   0.00,   0.00, 1005.1,   83.9, -999.0
31-03-2022, 00:24:45,      0,    0.0,    0.0,   0.00,   0.00, 1005.1,   83.9, -999.0
31-03-2022, 00:24:55,      0,    0.2,    0.0,   0.00,   0.00, 1005.1,   84.1, -999.0
31-03-2022, 00:25:05,    335,    0.1,    0.0,   0.00,   0.00, 1005.1,   84.0, -999.0
31-03-2022, 00:25:15,    331,    0.2,    0.0,   0.00,   0.00, 1005.2,   84.0, -999.0
31-03-2022, 00:25:25,    331,    0.0,    0.0,   0.00,   0.00, 1005.1,   83.8, -999.0
31-03-2022, 00:25:35,    331,    0.0,    0.0,   0.00,   0.00, 1005.1,   83.8, -999.0
31-03-2022, 00:25:45,    331,    0.0,    0.0,   0.00,   0.00, 1005.1,   83.8, -999.0
31-03-2022, 00:25:55,      2,    0.0,    0.0,   0.00,   0.00, 1005.1,   83.8, -999.0
31-03-2022, 00:26:04,     13,    0.7,    0.0,   0.00,   0.00, 1005.2,   84.1, -999.0
31-03-2022, 00:26:15,      7,    0.0,    0.0,   0.00,   0.00, 1005.1,   83.9, -999.0
31-03-2022, 00:26:24,      7,    0.0,    0.0,   0.00,   0.00, 1005.1,   83.9, -999.0
31-03-2022, 00:26:34,      6,    0.0,    0.0,   0.00,   0.00, 1005.1,   83.9, -999.0
31-03-2022, 00:26:44,      6,    0.0,   -0.2,   0.00,   0.00, 1005.1,   83.8, -999.0
31-03-2022, 00:26:54,    358,    0.4,   -0.1,   0.00,   0.00, 1005.2,   84.1, -999.0
31-03-2022, 00:27:04,    358,    0.0,    0.0,   0.00,   0.00, 1005.1,   84.0, -999.0
31-03-2022, 00:27:14,    358,    0.0,    0.1,   0.00,   0.00, 1005.1,   84.1, -999.0
31-03-2022, 00:27:24,    358,    0.0,    0.0,   0.00,   0.00, 1005.1,   84.1, -999.0
31-03-2022, 00:27:34,    358,    0.0,    0.0,   0.00,   0.00, 1005.1,   83.9, -999.0
31-03-2022, 00:27:44,    358,    0.0,    0.0,   0.00,   0.00, 1005.1,   84.0, -999.0
31-03-2022, 00:27:54,      0,    0.0,    0.0,   0.00,   0.00, 1005.1,   84.0, -999.0
31-03-2022, 00:28:04,      0,    0.0,    0.0,   0.00,   0.00, 1005.1,   84.0, -999.0
31-03-2022, 00:28:14,      0,    0.0,    0.1,   0.00,   0.00, 1005.1,   84.0, -999.0
31-03-2022, 00:28:24,     18,    0.6,    0.1,   0.00,   0.00, 1005.2,   84.2, -999.0
31-03-2022, 00:28:34,      4,    1.2,    0.0,   0.00,   0.00, 1005.2,   84.2, -999.0
31-03-2022, 00:28:44,     26,    3.2,    0.1,   0.00,   0.00, 1005.2,   84.3, -999.0
31-03-2022, 00:28:54,      1,    3.2,    0.1,   0.00,   0.00, 1005.2,   84.2, -999.0
31-03-2022, 00:29:04,    356,    1.8,    0.1,   0.00,   0.00, 1005.2,   84.1, -999.0
31-03-2022, 00:29:13,      0,    0.6,    0.1,   0.00,   0.00, 1005.2,   84.3, -999.0
31-03-2022, 00:29:24,      0,    0.0,    0.1,   0.00,   0.00, 1005.1,   84.0, -999.0
31-03-2022, 00:29:33,      0,    0.0,    0.0,   0.00,   0.00, 1005.1,   83.8, -999.0
31-03-2022, 00:29:43,      0,    0.0,    0.0,   0.00,   0.00, 1005.1,   84.0, -999.0
31-03-2022, 00:29:54,      0,    0.0,    0.0,   0.00,   0.00, 1005.1,   84.0, -999.0
31-03-2022, 00:30:03,      0,    0.0,    0.1,   0.00,   0.00, 1005.1,   83.9, -999.0
31-03-2022, 00:30:13,      0,    0.0,    0.0,   0.00,   0.00, 1005.1,   83.9, -999.0
31-03-2022, 00:30:23,      0,    0.0,    0.0,   0.00,   0.00, 1005.1,   83.9, -999.0
31-03-2022, 00:30:33,      0,    0.0,   -0.1,   0.00,   0.00, 1005.1,   84.0, -999.0
31-03-2022, 00:30:43,      1,    0.0,    0.0,   0.00,   0.00, 1005.1,   84.0, -999.0
31-03-2022, 00:30:53,      0,    0.0,    0.0,   0.00,   0.00, 1005.1,   83.8, -999.0
31-03-2022, 00:31:03,      0,    0.0,    0.0,   0.00,   0.00, 1005.1,   83.8, -999.0
31-03-2022, 00:31:13,      8,    0.0,   -0.1,   0.00,   0.00, 1005.1,   83.8, -999.0
31-03-2022, 00:31:23,      0,    0.0,    0.1,   0.00,   0.00, 1005.1,   83.8, -999.0
31-03-2022, 00:31:33,      0,    0.0,    0.0,   0.00,   0.00, 1005.1,   83.9, -999.0
31-03-2022, 00:31:43,      0,    0.0,    0.0,   0.00,   0.00, 1005.1,   83.8, -999.0
31-03-2022, 00:31:53,      2,    0.0,    0.0,   0.00,   0.00, 1005.1,   83.9, -999.0
31-03-2022, 00:32:13,      0,    0.0,    0.0,   0.00,   0.00, 1005.1,   83.9, -999.0
31-03-2022, 00:32:22,      0,    0.0,    0.0,   0.00,   0.00, 1005.1,   83.9, -999.0
31-03-2022, 00:32:33,      0,    0.2,    0.1,   0.00,   0.00, 1005.2,   84.1, -999.0
31-03-2022, 00:32:43,      0,    0.0,    0.1,   0.00,   0.00, 1005.1,   84.1, -999.0
31-03-2022, 00:32:54,      7,    0.0,    0.1,   0.00,   0.00, 1005.1,   84.0, -999.0
31-03-2022, 00:33:03,      0,    0.0,    0.0,   0.00,   0.00, 1005.1,   84.1, -999.0
31-03-2022, 00:33:12,      1,    0.0,    0.0,   0.00,   0.00, 1005.1,   84.0, -999.0
31-03-2022, 00:33:22,      3,    0.0,    0.0,   0.00,   0.00, 1005.1,   83.9, -999.0
31-03-2022, 00:33:32,      2,    0.0,    0.0,   0.00,   0.00, 1005.1,   83.9, -999.0
31-03-2022, 00:33:42,      2,    0.0,    0.0,   0.00,   0.00, 1005.1,   83.9, -999.0
31-03-2022, 00:33:52,    358,    0.5,    0.0,   0.00,   0.00, 1005.2,   84.1, -999.0
31-03-2022, 00:34:02,      4,    1.5,    0.2,   0.00,   0.00, 1005.3,   84.4, -999.0
31-03-2022, 00:34:12,      0,    0.3,    0.1,   0.00,   0.00, 1005.2,   84.3, -999.0
31-03-2022, 00:34:22,      0,    0.0,    0.1,   0.00,   0.00, 1005.1,   84.1, -999.0
31-03-2022, 00:34:32,      0,    0.0,    0.0,   0.00,   0.00, 1005.1,   84.2, -999.0
31-03-2022, 00:34:42,      0,    0.0,    0.1,   0.00,   0.00, 1005.1,   84.3, -999.0
31-03-2022, 00:34:52,      0,    0.0,    0.1,   0.00,   0.00, 1005.1,   84.1, -999.0
31-03-2022, 00:35:02,      0,    0.0,    0.1,   0.00,   0.00, 1005.1,   84.1, -999.0
31-03-2022, 00:35:12,      0,    0.0,    0.1,   0.00,   0.00, 1005.1,   84.0, -999.0
31-03-2022, 00:35:22,      0,    0.0,    0.1,   0.00,   0.00, 1005.1,   83.9, -999.0
31-03-2022, 00:35:32,      0,    0.0,    0.1,   0.00,   0.00, 1005.1,   84.0, -999.0
31-03-2022, 00:35:42,      0,    0.0,    0.0,   0.00,   0.00, 1005.1,   84.0, -999.0
31-03-2022, 00:35:52,      0,    0.0,    0.0,   0.00,   0.00, 1005.1,   84.0, -999.0
31-03-2022, 00:36:01,      0,    0.0,    0.1,   0.00,   0.00, 1005.1,   84.0, -999.0
31-03-2022, 00:36:12,      0,    0.0,    0.2,   0.00,   0.00, 1005.1,   84.1, -999.0
31-03-2022, 00:36:22,      0,    0.0,    0.1,   0.00,   0.00, 1005.1,   84.1, -999.0
31-03-2022, 00:36:31,      0,    0.0,    0.1,   0.00,   0.00, 1005.1,   84.0, -999.0
31-03-2022, 00:36:41,    102,    0.0,    0.0,   0.00,   0.00, 1005.1,   84.0, -999.0
31-03-2022, 00:36:52,     67,    1.0,    0.1,   0.00,   0.00, 1005.2,   84.2, -999.0
31-03-2022, 00:37:01,    324,    0.9,    0.1,   0.00,   0.00, 1005.2,   84.3, -999.0
31-03-2022, 00:37:11,    308,    0.4,    0.0,   0.00,   0.00, 1005.2,   84.1, -999.0
31-03-2022, 00:37:21,    312,    0.0,   -0.1,   0.00,   0.00, 1005.1,   83.8, -999.0
31-03-2022, 00:37:31,    357,    1.1,    0.0,   0.00,   0.00, 1005.3,   84.2, -999.0
31-03-2022, 00:37:41,    357,    0.0,    0.0,   0.00,   0.00, 1005.1,   83.8, -999.0
31-03-2022, 00:37:51,      0,    0.0,   -0.1,   0.00,   0.00, 1005.2,   83.8, -999.0
31-03-2022, 00:38:01,      0,    0.0,   -0.1,   0.00,   0.00, 1005.2,   83.9, -999.0
31-03-2022, 00:38:11,      0,    0.0,    0.0,   0.00,   0.00, 1005.1,   83.8, -999.0
31-03-2022, 00:38:21,      8,    0.0,   -0.1,   0.00,   0.00, 1005.1,   83.8, -999.0
31-03-2022, 00:38:31,      0,    0.0,    0.0,   0.00,   0.00, 1005.1,   83.9, -999.0
31-03-2022, 00:38:41,    351,    0.5,    0.0,   0.00,   0.00, 1005.2,   84.0, -999.0
31-03-2022, 00:38:51,    345,    0.3,    0.1,   0.00,   0.00, 1005.2,   84.2, -999.0
31-03-2022, 00:39:01,      2,    0.0,    0.0,   0.00,   0.00, 1005.2,   84.1, -999.0
31-03-2022, 00:39:10,    293,    0.0,    0.0,   0.00,   0.00, 1005.1,   84.1, -999.0
31-03-2022, 00:39:21,    292,    0.0,    0.0,   0.00,   0.00, 1005.1,   84.2, -999.0
31-03-2022, 00:39:31,    292,    0.0,    0.0,   0.00,   0.00, 1005.2,   84.1, -999.0
31-03-2022, 00:39:40,    293,    0.0,    0.0,   0.00,   0.00, 1005.2,   84.2, -999.0
31-03-2022, 00:39:51,    305,    0.0,    0.0,   0.00,   0.00, 1005.2,   84.1, -999.0
31-03-2022, 00:40:01,    305,    0.0,    0.0,   0.00,   0.00, 1005.2,   84.2, -999.0
31-03-2022, 00:40:10,    306,    0.0,    0.0,   0.00,   0.00, 1005.2,   84.2, -999.0
31-03-2022, 00:40:20,    306,    0.0,    0.0,   0.00,   0.00, 1005.1,   84.1, -999.0
31-03-2022, 00:40:30,    306,    0.0,    0.1,   0.00,   0.00, 1005.1,   84.2, -999.0
31-03-2022, 00:40:40,    349,    0.2,    0.0,   0.00,   0.00, 1005.2,   84.4, -999.0
31-03-2022, 00:40:50,    349,    0.0,    0.0,   0.00,   0.00, 1005.2,   84.3, -999.0
31-03-2022, 00:41:00,    355,    0.0,    0.0,   0.00,   0.00, 1005.1,   84.2, -999.0
31-03-2022, 00:41:10,    352,    0.0,    0.0,   0.00,   0.00, 1005.2,   84.4, -999.0
31-03-2022, 00:41:20,    352,    0.0,    0.0,   0.00,   0.00, 1005.1,   84.3, -999.0
31-03-2022, 00:41:30,    352,    0.0,    0.0,   0.00,   0.00, 1005.1,   84.1, -999.0
31-03-2022, 00:41:40,    352,    0.0,   -0.1,   0.00,   0.00, 1005.1,   84.2, -999.0
31-03-2022, 00:41:50,    352,    0.0,   -0.1,   0.00,   0.00, 1005.1,   84.1, -999.0
31-03-2022, 00:42:00,    358,    0.2,    0.0,   0.00,   0.00, 1005.2,   84.2, -999.0
31-03-2022, 00:42:10,    336,    1.8,    0.1,   0.00,   0.00, 1005.3,   84.6, -999.0
31-03-2022, 00:42:20,    337,    0.2,    0.0,   0.00,   0.00, 1005.2,   84.3, -999.0
31-03-2022, 00:42:30,    346,    0.0,   -0.1,   0.00,   0.00, 1005.1,   84.1, -999.0
31-03-2022, 00:42:40,    346,    0.0,   -0.1,   0.00,   0.00, 1005.2,   84.2, -999.0
31-03-2022, 00:42:49,    346,    0.0,   -0.1,   0.00,   0.00, 1005.1,   84.2, -999.0
31-03-2022, 00:43:00,     16,    0.6,    0.0,   0.00,   0.00, 1005.2,   84.5, -999.0
31-03-2022, 00:43:10,    349,    0.3,    0.1,   0.00,   0.00, 1005.2,   84.4, -999.0
31-03-2022, 00:43:19,    350,    0.0,    0.0,   0.00,   0.00, 1005.1,   84.3, -999.0
31-03-2022, 00:43:29,    336,    0.0,    0.0,   0.00,   0.00, 1005.2,   84.3, -999.0
31-03-2022, 00:43:40,    358,    1.0,    0.0,   0.00,   0.00, 1005.3,   84.5, -999.0
31-03-2022, 00:43:49,    341,    1.1,    0.1,   0.00,   0.00, 1005.3,   84.5, -999.0
31-03-2022, 00:43:59,    340,    0.4,    0.0,   0.00,   0.00, 1005.2,   84.4, -999.0
31-03-2022, 00:44:09,    341,    0.1,   -0.1,   0.00,   0.00, 1005.1,   84.2, -999.0
31-03-2022, 00:44:19,    340,    0.1,   -0.1,   0.00,   0.00, 1005.1,   84.3, -999.0
31-03-2022, 00:44:29,    340,    0.0,   -0.1,   0.00,   0.00, 1005.1,   84.2, -999.0
31-03-2022, 00:44:39,    340,    0.0,    0.0,   0.00,   0.00, 1005.2,   84.4, -999.0
31-03-2022, 00:44:49,    340,    0.0,   -0.2,   0.00,   0.00, 1005.1,   84.4, -999.0
31-03-2022, 00:44:59,    340,    0.0,    0.0,   0.00,   0.00, 1005.1,   84.2, -999.0
31-03-2022, 00:45:09,    358,    0.2,    0.0,   0.00,   0.00, 1005.2,   84.5, -999.0
31-03-2022, 00:45:19,    358,    0.0,   -0.1,   0.00,   0.00, 1005.1,   84.4, -999.0
31-03-2022, 00:45:29,    357,    0.0,    0.0,   0.00,   0.00, 1005.2,   84.4, -999.0
31-03-2022, 00:45:39,    358,    0.0,    0.0,   0.00,   0.00, 1005.2,   84.4, -999.0
31-03-2022, 00:45:49,      0,    0.0,   -0.1,   0.00,   0.00, 1005.1,   84.5, -999.0
31-03-2022, 00:45:59,    333,    0.8,    0.0,   0.00,   0.00, 1005.3,   84.8, -999.0
31-03-2022, 00:46:09,    332,    0.0,    0.1,   0.00,   0.00, 1005.2,   84.4, -999.0
31-03-2022, 00:46:19,    333,    0.1,    0.0,   0.00,   0.00, 1005.2,   84.5, -999.0
31-03-2022, 00:46:28,    346,    0.0,    0.0,   0.00,   0.00, 1005.2,   84.6, -999.0
31-03-2022, 00:46:39,    352,    0.0,   -0.1,   0.00,   0.00, 1005.2,   84.4, -999.0
31-03-2022, 00:46:49,    352,    0.0,   -0.1,   0.00,   0.00, 1005.1,   84.4, -999.0